Погода в Мири

Малайзия     4°25′31″N   114°00′26″E
темп.,
°C
ветер,
м/с
пор.,
м/с
влажн.,
%
обл.,
%
осадки,
мм/ч
давл.,
гПа
погр.,
м
19 апреля, пн
пн1923:00+25ююв3488100 0.0 1012226
02:00+25ююз3585100 0.1 1010298
05:00+25ююз4586100 0.1 1010367
08:00+25ю468493 0.3 1012371
11:00+28юз466792 0.0 1012740
14:00+28зюз6770100 0.2 1009799
17:00+28зюз5673100 0.6 1009877
20:00+27зюз4678100 0.6 1010543
20 апреля, вт
вт2023:00+27зюз4678100 0.0 1011712
02:00+27зюз4678100 0.1 1009703
05:00+27зюз3577100 0.2 1009722
08:00+27ююз2378100 0.3 1011468
11:00+29з4467100 0.3 10121096
14:00+29з4564100 0.3 10101001
17:00+28з3467100 0.0 1009825
20:00+27зюз2370100 0.0 1011523
21 апреля, ср
ср2123:00+27ююз1272100 0.0 1012391
02:00+26ююз2375100 0.0 1010387
05:00+25ю2381100 0.0 1010359
08:00+26ююв238261 0.0 1012233
11:00+29зюз33675 0.0 1011699
14:00+29з436341 0.0 1009592
17:00+29зсз44625 0.0 1008498
20:00+28сз3469100 0.0 1010352
22 апреля, чт
чт2223:00+27с126791 0.0 1011425
02:00+26в017051 0.0 1009190
05:00+25ююв2279100 0.0 1009180
08:00+26юв227791 0.0 1011194
11:00+29зюз226134 0.0 1010684
14:00+29з546231 0.0 1008605
17:00+29зсз456597 0.0 1007525
20:00+28зсз456975 0.0 1009370
23 апреля, пт
пт2323:00+28сз137072 0.0 1010433
02:00+27ююз1270100 0.0 1009340
05:00+25юв2383100 0.0 1009156
08:00+26ююв3378100 0.0 1011243
11:00+29зюз3467100 0.0 1010778
14:00+29з556897 0.1 1008645
17:00+29з457275 0.0 1007685
20:00+28зсз4675100 0.0 1009532